FW2982 Weather Reports


time (UTC)temp
C
wind
direction
speed
KPH
gust
KPH
rain 1hr
cm
rain 24hr
cm
rain mn
cm
humidity
%
barometer
mb
20260902045401 23 262 0.0 0.0 0.00 0.00 0.00 93 1014.6
20260902045144 23 262 0.0 0.0 0.00 0.00 0.00 93 1014.6
20260902044402 23 262 0.0 0.0 0.00 0.00 0.00 93 1014.5
20260902044138 23 262 0.0 0.0 0.00 0.00 0.00 93 1014.5
20260902043359 23 262 0.0 0.0 0.00 0.00 0.00 93 1014.4
20260902042858 23 262 0.0 0.0 0.00 0.00 0.00 93 1014.4
20260902042345 23 262 0.0 0.0 0.00 0.00 0.00 93 1014.3
20260902041845 23 262 0.0 0.0 0.00 0.00 0.00 93 1014.2
20260902041343 23 262 0.0 0.0 0.00 0.00 0.00 93 1014.2
20260902040844 23 262 0.0 0.0 0.00 0.00 0.00 92 1014.1
20260902040342 24 262 0.0 0.0 0.00 0.00 0.00 92 1014.1
20260902035839 24 262 0.0 0.0 0.00 0.00 0.00 92 1014.0
20260902035339 24 262 0.0 0.0 0.00 0.00 0.00 92 1014.0
20260902034838 24 262 0.0 0.0 0.00 0.00 0.00 92 1014.0
20260902034339 24 262 0.0 0.0 0.00 0.00 0.00 91 1014.0
20260902033831 24 262 0.0 0.0 0.00 0.00 0.00 91 1013.9
20260902033333 24 262 0.0 0.0 0.00 0.00 0.00 91 1013.9
20260902032831 25 262 0.0 0.0 0.00 0.00 0.00 91 1013.7
20260902032330 25 262 0.0 0.0 0.00 0.00 0.00 90 1013.7
20260902031817 25 262 0.0 0.0 0.00 0.00 0.00 90 1013.6
20260902031316 25 262 0.0 0.0 0.00 0.00 0.00 90 1013.5
20260902030812 25 262 0.0 0.0 0.00 0.00 0.00 90 1013.5
20260902030310 25 262 0.0 0.0 0.00 0.00 0.00 90 1013.3
20260902025807 25 262 0.0 0.0 0.00 0.00 0.00 89 1013.3
20260902025307 25 262 0.0 0.0 0.00 0.00 0.00 89 1013.3
20260902025048 25 262 0.0 0.0 0.00 0.00 0.00 88 1013.3
20260902024548 25 262 0.0 0.0 0.00 0.00 0.00 88 1013.4
20260902023809 25 262 0.0 0.0 0.00 0.00 0.00 87 1013.5
20260902023307 26 262 0.0 0.0 0.00 0.00 0.00 88 1013.6
20260902022808 26 262 0.0 0.0 0.00 0.00 0.00 86 1013.6
20260902022327 26 262 0.0 0.0 0.00 0.00 0.00 84 1013.8
20260902022319 26 262 0.0 0.0 0.00 0.00 0.00 84 1013.7
20260902021309 26 262 0.0 1.6 0.00 0.00 0.00 86 1013.8
20260902020807 26 262 0.0 1.6 0.00 0.00 0.00 88 1013.6
20260902020307 26 262 0.0 1.6 0.00 0.00 0.00 87 1013.6
20260902020045 26 262 0.0 1.6 0.00 0.00 0.00 87 1013.4
20260902015307 26 258 0.0 1.6 0.00 0.00 0.00 88 1013.4
20260902014806 26 258 0.0 3.2 0.00 0.00 0.00 89 1013.3
20260902014305 26 258 1.6 3.2 0.00 0.00 0.00 90 1013.3
20260902013807 26 258 0.0 0.0 0.00 0.00 0.00 89 1013.3
20260902013546 26 258 0.0 0.0 0.00 0.00 0.00 89 1013.3
20260902012805 26 258 0.0 0.0 0.00 0.00 0.00 89 1013.3
20260902012309 26 258 0.0 0.0 0.00 0.00 0.00 89 1013.3
20260902011805 26 258 0.0 0.0 0.00 0.00 0.00 89 1013.3
20260902011306 26 258 0.0 0.0 0.00 0.00 0.00 89 1013.2
20260902011044 26 258 0.0 1.6 0.00 0.00 0.00 88 1013.1
20260902010303 26 258 0.0 1.6 0.00 0.00 0.00 89 1013.1
20260902005805 26 258 0.0 0.0 0.00 0.00 0.00 89 1012.9
20260902005306 26 258 0.0 0.0 0.00 0.00 0.00 90 1012.8
20260902004804 26 258 0.0 0.0 0.00 0.00 0.00 89 1012.9
20260902004305 27 258 0.0 0.0 0.00 0.00 0.00 89 1012.7
20260902003804 27 258 0.0 0.0 0.00 0.00 0.00 89 1012.5
20260902003544 27 258 0.0 0.0 0.00 0.00 0.00 88 1012.5
20260902002803 27 258 0.0 0.0 0.00 0.00 0.00 87 1012.4
20260902002306 27 258 0.0 0.0 0.00 0.00 0.00 84 1012.3
20260902001804 28 258 0.0 0.0 0.00 0.00 0.00 83 1012.1
20260902001303 28 258 0.0 0.0 0.00 0.00 0.00 82 1011.9
20260902000803 28 258 0.0 1.6 0.00 0.00 0.00 82 1011.9
20260902000304 28 258 0.0 1.6 0.00 0.00 0.00 83 1011.9
20260901235804 28 258 0.0 0.0 0.00 0.00 0.00 83 1011.8
20260901235543 28 258 0.0 0.0 0.00 0.00 0.00 83 1011.8
20260901234803 28 258 0.0 1.6 0.00 0.00 0.00 84 1011.8
20260901234303 28 258 0.0 1.6 0.00 0.00 0.00 84 1011.8
20260901233803 28 258 0.0 1.6 0.00 0.00 0.00 84 1011.8
20260901233303 28 258 0.0 0.0 0.00 0.00 0.00 83 1011.8
20260901232804 29 258 0.0 0.0 0.00 0.00 0.00 83 1012.0
20260901232306 29 258 0.0 0.0 0.00 0.00 0.00 82 1012.0
20260901231804 29 258 0.0 0.0 0.00 0.00 0.00 81 1012.0
20260901231303 29 258 0.0 0.0 0.00 0.00 0.00 80 1012.0
20260901231042 29 258 0.0 0.0 0.00 0.00 0.00 80 1011.9
20260901230304 30 258 0.0 0.0 0.00 0.00 0.00 80 1012.0
20260901225739 30 258 0.0 0.0 0.00 0.00 0.00 79 1012.1
20260901225238 30 258 0.0 0.0 0.00 0.00 0.00 78 1012.1
20260901224739 30 258 0.0 0.0 0.00 0.00 0.00 78 1012.1
20260901224237 30 258 0.0 0.0 0.00 0.00 0.00 77 1012.1
20260901223734 30 258 0.0 0.0 0.00 0.00 0.00 77 1012.0
20260901223234 30 258 0.0 1.6 0.00 0.00 0.00 76 1012.0
20260901222732 30 258 0.0 3.2 0.00 0.00 0.00 75 1012.0
20260901222233 30 258 0.0 3.2 0.00 0.00 0.00 73 1012.1
20260901221732 30 258 0.0 3.2 0.00 0.00 0.00 73 1012.1
20260901221233 30 282 0.0 0.0 0.00 0.00 0.00 74 1012.1
20260901220731 31 282 0.0 0.0 0.00 0.00 0.00 73 1012.0
20260901220232 31 282 0.0 1.6 0.00 0.00 0.00 72 1012.1
20260901215732 31 282 0.0 1.6 0.00 0.00 0.00 72 1012.1
20260901215233 31 282 0.0 0.0 0.00 0.00 0.00 71 1012.4
20260901215014 31 282 0.0 1.6 0.00 0.00 0.00 69 1012.4
20260901214505 32 282 0.0 3.2 0.00 0.00 0.00 70 1012.4
20260901213726 32 282 1.6 3.2 0.00 0.00 0.00 68 1012.3
20260901213227 32 224 0.0 1.6 0.00 0.00 0.00 68 1012.3
20260901212727 32 224 0.0 1.6 0.00 0.00 0.00 65 1012.4
20260901212504 33 282 0.0 3.2 0.00 0.00 0.00 65 1012.4
20260901211722 33 282 0.0 3.2 0.00 0.00 0.00 66 1012.4
20260901211222 33 285 0.0 1.6 0.00 0.00 0.00 66 1012.3
20260901210723 33 272 0.0 3.2 0.00 0.00 0.00 64 1012.3
20260901210447 33 268 1.6 3.2 0.00 0.00 0.00 63 1012.4
20260901205945 33 247 0.0 4.8 0.00 0.00 0.00 63 1012.4
20260901205208 33 247 0.0 4.8 0.00 0.00 0.00 63 1012.4
20260901204947 33 289 0.0 1.6 0.00 0.00 0.00 67 1012.5
20260901204206 33 289 0.0 4.8 0.00 0.00 0.00 63 1012.5
20260901203705 33 289 0.0 4.8 0.00 0.00 0.00 63 1012.4
20260901203202 33 285 0.0 4.8 0.00 0.00 0.00 62 1012.6
20260901202943 33 285 0.0 4.8 0.00 0.00 0.00 62 1012.6
20260901202204 33 355 1.6 3.2 0.00 0.00 0.00 63 1012.6
20260901201942 33 6 0.0 3.2 0.00 0.00 0.00 65 1012.6
20260901201441 33 234 0.0 4.8 0.00 0.00 0.00 65 1012.7
20260901200702 32 234 0.0 4.8 0.00 0.00 0.00 66 1012.8
20260901200202 32 278 0.0 0.0 0.00 0.00 0.00 68 1012.9
20260901195704 32 278 0.0 3.2 0.00 0.00 0.00 65 1012.9
20260901195203 33 278 0.0 3.2 0.00 0.00 0.00 64 1013.0
20260901194702 33 24 1.6 9.7 0.00 0.00 0.00 62 1013.0
20260901194159 33 314 1.6 9.7 0.00 0.00 0.00 64 1013.1
20260901193657 33 319 1.6 3.2 0.00 0.00 0.00 70 1013.2
20260901193158 33 321 0.0 3.2 0.00 0.00 0.00 69 1013.2
20260901192657 32 268 0.0 1.6 0.00 0.00 0.00 70 1013.3
20260901192132 32 268 0.0 1.6 0.00 0.00 0.00 71 1013.3
20260901191630 32 268 0.0 3.2 0.00 0.00 0.00 71 1013.4
20260901191131 32 268 0.0 3.2 0.00 0.00 0.00 70 1013.6
20260901190632 32 288 0.0 6.4 0.00 0.00 0.00 67 1013.6
20260901190132 33 285 1.6 6.4 0.00 0.00 0.00 65 1013.8
20260901185632 33 302 1.6 4.8 0.00 0.00 0.00 63 1013.9
20260901185132 33 258 0.0 4.8 0.00 0.00 0.00 61 1013.9
20260901184631 34 258 1.6 4.8 0.00 0.00 0.00 60 1013.9
20260901184131 35 292 1.6 8.0 0.00 0.00 0.00 58 1013.8
20260901183631 35 279 3.2 8.0 0.00 0.00 0.00 59 1013.9
20260901183132 35 0 1.6 6.4 0.00 0.00 0.00 58 1013.7
20260901182632 35 28 3.2 6.4 0.00 0.00 0.00 60 1013.8
20260901182131 35 357 0.0 4.8 0.00 0.00 0.00 59 1013.7
20260901181633 35 254 3.2 4.8 0.00 0.00 0.00 59 1013.5
20260901181131 34 336 1.6 4.8 0.00 0.00 0.00 58 1013.6
20260901180630 35 302 1.6 4.8 0.00 0.00 0.00 57 1013.7
20260901180131 34 182 3.2 4.8 0.00 0.00 0.00 58 1013.7
20260901175631 35 78 1.6 4.8 0.00 0.00 0.00 58 1013.7
20260901175132 35 247 3.2 4.8 0.00 0.00 0.00 57 1013.7
20260901174938 34 227 1.6 8.0 0.00 0.00 0.00 59 1013.8
20260901174932 34 324 1.6 6.4 0.00 0.00 0.00 62 1013.7
20260901173631 34 319 3.2 8.0 0.00 0.00 0.00 62 1013.7
20260901173131 34 344 1.6 4.8 0.00 0.00 0.00 61 1013.7
20260901172631 34 321 3.2 6.4 0.00 0.00 0.00 60 1013.7
20260901172118 35 202 3.2 6.4 0.00 0.00 0.00 59 1013.7
20260901171858 34 275 3.2 6.4 0.00 0.00 0.00 61 1013.7
20260901171117 34 195 1.6 6.4 0.00 0.00 0.00 61 1013.7
20260901170616 34 28 3.2 6.4 0.00 0.00 0.00 61 1013.7
20260901170112 34 251 1.6 6.4 0.00 0.00 0.00 62 1013.8
20260901165607 35 343 3.2 6.4 0.00 0.00 0.00 62 1014.0
20260901165104 34 341 3.2 8.0 0.00 0.00 0.00 63 1014.1
20260901164602 34 142 1.6 8.0 0.00 0.00 0.00 62 1014.1
20260901164101 34 353 1.6 4.8 0.00 0.00 0.00 64 1014.2
20260901163839 33 296 3.2 4.8 0.00 0.00 0.00 65 1014.1
20260901163103 32 276 1.6 4.8 0.00 0.00 0.00 66 1014.2
20260901162837 33 276 1.6 9.7 0.00 0.00 0.00 64 1014.3
20260901162058 33 0 1.6 9.7 0.00 0.00 0.00 63 1014.2
20260901161558 34 231 1.6 8.0 0.00 0.00 0.00 63 1014.3
20260901161342 35 336 1.6 8.0 0.00 0.00 0.00 61 1014.4
20260901160559 35 302 1.6 4.8 0.00 0.00 0.00 62 1014.4
20260901160117 35 331 3.2 6.4 0.00 0.00 0.00 61 1014.5
20260901160110 35 340 1.6 6.4 0.00 0.00 0.00 61 1014.4
20260901155053 35 288 1.6 6.4 0.00 0.00 0.00 61 1014.5
20260901154555 34 1 3.2 8.0 0.00 0.00 0.00 61 1014.6
20260901154052 35 357 3.2 4.8 0.00 0.00 0.00 61 1014.7
20260901153831 35 272 3.2 4.8 0.00 0.00 0.00 63 1014.8
20260901153117 35 141 0.0 1.6 0.00 0.00 0.00 61 1014.8
20260901153109 34 157 0.0 1.6 0.00 0.00 0.00 65 1014.8
20260901152053 34 217 0.0 3.2 0.00 0.00 0.00 63 1014.9
20260901151554 34 193 1.6 3.2 0.00 0.00 0.00 63 1015.0
20260901151053 34 288 0.0 3.2 0.00 0.00 0.00 63 1015.0
20260901150552 34 268 1.6 4.8 0.00 0.00 0.00 64 1015.0
20260901150051 33 14 1.6 4.8 0.00 0.00 0.00 65 1014.9
20260901145552 33 337 0.0 0.0 0.00 0.00 0.00 65 1015.0
20260901145052 32 333 0.0 1.6 0.00 0.00 0.00 67 1015.0
20260901144552 32 344 0.0 1.6 0.00 0.00 0.00 68 1015.1
20260901144051 32 344 0.0 3.2 0.00 0.00 0.00 67 1015.1
20260901143552 33 340 0.0 3.2 0.00 0.00 0.00 64 1015.1
20260901143051 33 357 0.0 6.4 0.00 0.00 0.00 64 1015.1
20260901142551 33 357 3.2 6.4 0.00 0.00 0.00 64 1015.1
20260901142352 32 298 0.0 0.0 0.00 0.00 0.00 68 1015.1
20260901142348 33 305 0.0 4.8 0.00 0.00 0.00 68 1015.1
20260901141050 32 298 0.0 0.0 0.00 0.00 0.00 67 1015.1
20260901140551 32 259 0.0 0.0 0.00 0.00 0.00 66 1015.1
20260901140333 32 307 0.0 0.0 0.00 0.00 0.00 66 1015.0
20260901135829 32 203 0.0 0.0 0.00 0.00 0.00 67 1015.2
20260901135050 32 258 0.0 0.0 0.00 0.00 0.00 68 1015.1
20260901134829 32 258 0.0 0.0 0.00 0.00 0.00 70 1015.0
20260901134051 32 258 0.0 0.0 0.00 0.00 0.00 69 1015.1
20260901133551 32 16 0.0 0.0 0.00 0.00 0.00 72 1015.1
20260901133050 31 62 0.0 0.0 0.00 0.00 0.00 73 1015.1
20260901132827 31 62 0.0 0.0 0.00 0.00 0.00 75 1015.2
20260901132049 30 62 0.0 0.0 0.00 0.00 0.00 77 1015.1
20260901131550 30 62 0.0 0.0 0.00 0.00 0.00 77 1015.2
20260901131049 29 62 0.0 0.0 0.00 0.00 0.00 79 1015.3
20260901130550 30 62 0.0 0.0 0.00 0.00 0.00 79 1015.2
20260901130048 28 62 0.0 0.0 0.00 0.00 0.00 83 1015.4
20260901125548 25 62 0.0 0.0 0.00 0.00 0.00 96 1015.4
20260901125045 25 62 0.0 0.0 0.00 0.00 0.00 96 1015.4
20260901124827 25 62 0.0 0.0 0.00 0.00 0.00 96 1015.4
20260901124044 24 62 0.0 0.0 0.00 0.00 0.00 97 1015.5
20260901123545 24 62 0.0 0.0 0.00 0.00 0.00 97 1015.5
20260901123045 23 62 0.0 0.0 0.00 0.00 0.00 97 1015.5
20260901122544 23 62 0.0 0.0 0.00 0.00 0.00 97 1015.6
20260901122044 23 62 0.0 0.0 0.00 0.00 0.00 97 1015.6
20260901121545 23 62 0.0 0.0 0.00 0.00 0.00 97 1015.6
20260901121325 23 62 0.0 0.0 0.00 0.00 0.00 97 1015.5
20260901120544 23 62 0.0 0.0 0.00 0.00 0.00 97 1015.4
20260901120042 23 62 0.0 0.0 0.00 0.00 0.00 97 1015.3
20260901115545 23 62 0.0 0.0 0.00 0.00 0.00 97 1015.4
20260901115043 23 62 0.0 0.0 0.00 0.00 0.00 97 1015.4
20260901114821 23 62 0.0 0.0 0.00 0.00 0.00 97 1015.2
20260901114042 23 62 0.0 0.0 0.00 0.00 0.00 97 1015.1
20260901113543 22 62 0.0 0.0 0.00 0.00 0.00 97 1015.1
20260901113042 22 62 0.0 0.0 0.00 0.00 0.00 97 1015.1
20260901112542 22 62 0.0 0.0 0.00 0.00 0.00 97 1014.8
20260901112043 22 62 0.0 0.0 0.00 0.00 0.00 97 1014.9
20260901111542 22 62 0.0 0.0 0.00 0.00 0.00 97 1014.9
20260901111042 22 62 0.0 0.0 0.00 0.00 0.00 97 1014.9
20260901110542 22 62 0.0 0.0 0.00 0.00 0.00 97 1014.9
20260901110042 22 62 0.0 0.0 0.00 0.00 0.00 97 1014.9
20260901105538 22 62 0.0 0.0 0.00 0.00 0.00 97 1014.9
20260901105036 22 62 0.0 0.0 0.00 0.00 0.00 97 1014.9
20260901104535 22 62 0.0 0.0 0.00 0.00 0.00 97 1014.9
20260901104032 22 62 0.0 0.0 0.00 0.00 0.00 97 1014.8
20260901103531 22 62 0.0 0.0 0.00 0.00 0.00 97 1014.8
20260901103032 22 62 0.0 0.0 0.00 0.00 0.00 97 1014.7
20260901102511 22 62 0.0 0.0 0.00 0.00 0.00 97 1014.7
20260901102243 22 62 0.0 0.0 0.00 0.00 0.00 97 1014.7
20260901101504 22 62 0.0 0.0 0.00 0.00 0.00 97 1014.6
20260901101004 22 62 0.0 0.0 0.00 0.00 0.00 97 1014.6
20260901100503 22 62 0.0 0.0 0.00 0.00 0.00 97 1014.6
20260901100004 22 62 0.0 0.0 0.00 0.00 0.00 97 1014.6
20260901095504 22 62 0.0 0.0 0.00 0.00 0.00 97 1014.5
20260901095003 22 62 0.0 0.0 0.00 0.00 0.00 97 1014.6
20260901094504 22 62 0.0 0.0 0.00 0.00 0.00 97 1014.6
20260901094004 22 62 0.0 0.0 0.00 0.00 0.00 97 1014.6
20260901093505 22 62 0.0 0.0 0.00 0.00 0.00 97 1014.6
20260901093003 22 62 0.0 0.0 0.00 0.00 0.00 97 1014.7
20260901092503 22 62 0.0 0.0 0.00 0.00 0.00 97 1014.7
20260901092305 22 62 0.0 0.0 0.00 0.00 0.00 97 1014.8
20260901092017 22 62 0.0 0.0 0.00 0.00 0.00 97 1014.7
20260901091002 22 62 0.0 0.0 0.00 0.00 0.00 97 1014.9
20260901090503 22 62 0.0 0.0 0.00 0.00 0.00 97 1014.8
20260901090004 22 62 0.0 0.0 0.00 0.00 0.00 97 1014.8
20260901085505 22 62 0.0 0.0 0.00 0.00 0.00 97 1014.8
20260901085003 22 62 0.0 0.0 0.00 0.00 0.00 97 1014.8
20260901084503 22 62 0.0 0.0 0.00 0.00 0.00 97 1014.9
20260901084002 22 62 0.0 0.0 0.00 0.00 0.00 97 1014.9
20260901083503 22 62 0.0 0.0 0.00 0.00 0.00 97 1014.9
20260901083002 22 62 0.0 0.0 0.00 0.00 0.00 97 1014.9
20260901082506 22 62 0.0 0.0 0.00 0.00 0.00 97 1014.9
20260901082002 22 62 0.0 0.0 0.00 0.00 0.00 97 1014.9
20260901081502 22 62 0.0 0.0 0.00 0.00 0.00 97 1014.8
20260901081002 22 62 0.0 0.0 0.00 0.03 0.00 97 1014.7
20260901080502 22 62 0.0 0.0 0.00 0.03 0.00 97 1014.8
20260901080241 22 62 0.0 0.0 0.00 0.03 0.00 97 1014.8
20260901075502 22 62 0.0 0.0 0.00 0.03 0.00 96 1014.9
20260901075002 22 62 0.0 0.0 0.00 0.03 0.00 96 1014.9
20260901074502 22 62 0.0 0.0 0.00 0.03 0.00 96 1014.9
20260901074002 22 62 0.0 0.0 0.00 0.03 0.00 96 1015.0
20260901073501 22 62 0.0 0.0 0.00 0.03 0.00 96 1015.0
20260901073003 22 62 0.0 0.0 0.00 0.03 0.00 96 1015.0
20260901072741 22 62 0.0 0.0 0.00 0.03 0.00 97 1015.1
20260901072001 22 62 0.0 0.0 0.00 0.03 0.00 97 1015.2
20260901071505 22 62 0.0 0.0 0.00 0.03 0.00 97 1015.2
20260901071003 22 62 0.0 0.0 0.00 0.03 0.00 96 1015.1
20260901070457 22 62 0.0 0.0 0.00 0.03 0.00 96 1015.1
20260901065947 22 62 0.0 0.0 0.00 0.03 0.00 96 1015.2
20260901065448 22 62 0.0 0.0 0.00 0.03 0.00 96 1015.2
20260901064947 22 62 0.0 0.0 0.00 0.03 0.00 96 1015.3
20260901064726 22 62 0.0 0.0 0.00 0.03 0.00 96 1015.3
20260901063945 22 62 0.0 0.0 0.00 0.03 0.00 96 1015.4
20260901063446 22 62 0.0 0.0 0.00 0.03 0.00 96 1015.4
20260901063222 22 62 0.0 0.0 0.00 0.03 0.00 96 1015.5
20260901062446 22 62 0.0 0.0 0.00 0.03 0.00 96 1015.4
20260901061945 22 62 0.0 0.0 0.00 0.03 0.00 96 1015.5
20260901061440 22 62 0.0 0.0 0.00 0.03 0.00 96 1015.5
20260901060941 22 62 0.0 0.0 0.00 0.03 0.00 96 1015.5
20260901060725 22 62 0.0 0.0 0.00 0.03 0.00 96 1015.5
20260901055942 22 62 0.0 0.0 0.00 0.03 0.00 96 1015.5
20260901055441 22 62 0.0 0.0 0.00 0.03 0.00 96 1015.4
20260901054940 22 62 0.0 0.0 0.00 0.03 0.00 96 1015.6
20260901054440 22 62 0.0 0.0 0.00 0.03 0.00 96 1015.7
20260901053940 22 62 0.0 0.0 0.00 0.03 0.00 96 1015.7
20260901053438 22 62 0.0 0.0 0.00 0.03 0.00 96 1015.8
20260901052937 22 62 0.0 0.0 0.00 0.03 0.00 96 1015.9
20260901052434 23 62 0.0 0.0 0.00 0.03 0.00 96 1015.9
20260901051957 22 62 0.0 0.0 0.00 0.03 0.00 96 1016.0
20260901051949 22 62 0.0 0.0 0.00 0.03 0.00 96 1016.0
20260901050934 22 62 0.0 0.0 0.00 0.03 0.00 96 1016.0
20260901050433 22 62 0.0 0.0 0.00 0.03 0.00 96 1015.9
20260901045932 22 62 0.0 0.0 0.00 0.03 0.00 96 1016.0